Flag Weather past 2 weeks in Bentonville, Arkansas, U.S.A.

Now
41 °F

Mostly cloudy.


Feels Like: 34 °F
Forecast: 35 / 48 °F
Wind: 13 mph from Northwest

Location: Bentonville Weather Observing Station

Current Time: Nov 23, 2014 at 11:47:46 PM

Latest Report: Nov 23, 2014 at 11:35 PM


Visibility: 7 mi

Pressure: 29.57 "Hg

Humidity: 81%

Dew point: 36 °F

Location of BentonvilleLocation

Historic Weather in Bentonville — Graph

°F

Bentonville temperature yesterday

Maximum temperature yesterday: 55 °F (at 10:15 AM)
Minimum temperature yesterday: 54 °F (at 12:15 AM)
Average temperature yesterday: 54 °F

Past Weeks' High & Low Weather Summary

 TemperatureHumidityPressure
High73 °F (Nov 10, 1:35 PM)94% (Nov 23, 8:15 AM)30.55 "Hg (Nov 23, 8:15 AM)
Low12 °F (Nov 18, 4:15 AM)29% (Nov 20, 1:15 PM)29.30 "Hg (Nov 23, 2:35 PM)
Average39 °F60%30.12 "Hg
* Reported Nov 8 10:15 PM — Nov 23 10:55 PM, Bentonville, Weather by CustomWeather, © 2014

Note: Actual official high and low records may vary slightly from our data, if they occured in-between our weather recording intervals... More about our weather records

Advertising

Bentonville weather history for previous 24 hours

 ConditionsComfort  
Time TempWeatherWind HumidityBarometerVisibility
10:55 PM
Nov 23
43 °FMostly cloudy.13 mph81%29.53 "Hg7 mi
10:35 PM45 °FMostly cloudy.20 mph76%29.50 "Hg5 mi
10:15 PM45 °FMostly cloudy.13 mph81%29.48 "Hg4 mi
9:55 PM45 °FOvercast.18 mph81%29.47 "Hg10 mi
9:35 PM46 °FOvercast.17 mph76%29.46 "Hg10 mi
9:15 PM46 °FOvercast.17 mph82%29.43 "Hg10 mi
8:55 PM46 °FLow clouds.14 mph87%29.42 "Hg9 mi
8:35 PM48 °FLow clouds.18 mph87%29.40 "Hg9 mi
8:15 PM52 °FMostly cloudy.22 mph82%29.39 "Hg10 mi
7:55 PM55 °FMostly cloudy.15 mph82%29.37 "Hg10 mi
7:35 PM55 °FMostly cloudy.9 mph88%29.36 "Hg10 mi
7:15 PM57 °FThunderstorms. Partly cloudy.13 mph82%29.35 "Hg10 mi
6:55 PM55 °FPartly cloudy.6 mph88%29.34 "Hg10 mi
6:35 PM55 °FPartly cloudy.5 mph88%29.34 "Hg10 mi
5:35 PM57 °FThundershowers. Mostly cloudy.10 mph82%29.32 "Hg9 mi
5:15 PM55 °FThunderstorms. Mostly cloudy.16 mph82%29.33 "Hg4 mi
4:55 PM63 °FThunderstorms. Partly sunny.5 mph73%29.30 "Hg10 mi
4:35 PM63 °FPartly sunny.8 mph73%29.30 "Hg10 mi
4:15 PM63 °FPassing clouds.7 mph68%29.31 "Hg10 mi
3:55 PM64 °FBroken clouds.6 mph68%29.32 "Hg10 mi
3:35 PM64 °FMostly cloudy.7 mph68%29.32 "Hg10 mi
3:15 PM64 °FPartly sunny.7 mph68%29.31 "Hg10 mi
2:55 PM66 °FSunny.9 mph64%29.30 "Hg10 mi
2:35 PM66 °FPassing clouds.8 mph64%29.30 "Hg10 mi
2:15 PM64 °FScattered clouds.8 mph64%29.32 "Hg10 mi
1:55 PM64 °FPartly sunny.13 mph64%29.33 "Hg10 mi
1:35 PM64 °FPartly sunny.12 mph64%29.35 "Hg10 mi
1:15 PM64 °FMostly cloudy.8 mph68%29.36 "Hg10 mi
12:55 PM64 °FOvercast.7 mph68%29.37 "Hg10 mi
12:35 PM64 °FPartly sunny.13 mph68%29.38 "Hg10 mi
11:55 AM63 °FMostly cloudy.8 mph73%29.42 "Hg10 mi
11:35 AM61 °FMostly cloudy.9 mph77%29.45 "Hg10 mi
11:15 AM61 °FMostly cloudy.9 mph77%29.46 "Hg10 mi
10:55 AM61 °FMostly cloudy.9 mph77%29.47 "Hg10 mi
10:35 AM61 °FOvercast.9 mph77%29.49 "Hg10 mi
10:15 AM59 °FOvercast.10 mph82%29.50 "Hg10 mi
9:55 AM59 °FOvercast.12 mph82%29.51 "Hg10 mi
9:35 AM57 °FOvercast.9 mph88%29.53 "Hg10 mi
8:55 AM57 °FMostly cloudy.9 mph88%29.56 "Hg10 mi
8:35 AM57 °FOvercast.13 mph88%29.56 "Hg10 mi
8:15 AM55 °FOvercast.9 mph94%29.57 "Hg10 mi
7:55 AM55 °FOvercast.7 mph88%29.58 "Hg4 mi
7:35 AM55 °FOvercast.3 mph88%29.59 "Hg10 mi
7:15 AM57 °FOvercast.3 mph82%29.59 "Hg10 mi
6:55 AM57 °FOvercast.6 mph82%29.59 "Hg10 mi
6:35 AM57 °FOvercast.6 mph82%29.58 "Hg10 mi
5:55 AM57 °FMostly cloudy.7 mph82%29.59 "Hg10 mi
5:35 AM57 °FMostly cloudy.9 mph82%29.59 "Hg10 mi
4:55 AM57 °FOvercast.9 mph82%29.63 "Hg10 mi
4:35 AM57 °FOvercast.12 mph88%29.63 "Hg10 mi
3:55 AM59 °FOvercast.18 mph82%29.64 "Hg10 mi
3:35 AM59 °FOvercast.12 mph82%29.66 "Hg10 mi
3:15 AM57 °FOvercast.6 mph88%29.67 "Hg10 mi
2:55 AM57 °FOvercast.8 mph88%29.67 "Hg10 mi
2:35 AM57 °FOvercast.8 mph82%29.67 "Hg10 mi
2:15 AM57 °FOvercast.10 mph82%29.67 "Hg10 mi
1:55 AM57 °FOvercast.10 mph82%29.67 "Hg10 mi
1:35 AM57 °FOvercast.10 mph82%29.68 "Hg10 mi
1:15 AM57 °FOvercast.14 mph82%29.71 "Hg10 mi
12:55 AM57 °FOvercast.9 mph82%29.71 "Hg10 mi
12:35 AM55 °FPassing clouds.13 mph88%29.72 "Hg10 mi
12:15 AM55 °FClear.12 mph82%29.73 "Hg10 mi
11:55 PM
Nov 22
55 °FClear.13 mph82%29.73 "Hg10 mi
11:35 PM55 °FClear.14 mph82%29.75 "Hg10 mi
11:15 PM55 °FPassing clouds.13 mph82%29.76 "Hg10 mi
Weather by CustomWeather, © 2014

See weather overviewHow to use our weather pages